When you browse on this site, cookies collect data to enhance your experience and personalize the content and advertising you see.
Visit our Privacy Policy to learn more. By continuing to use the site, you agree to this use of cookies and data.
  • en Suisse
  • Liste des pays
  • À 7 jours
  • Température de l'eau
  • Carte satellitaire
  • Carte météo
  • Widgets météo
  • user-avatar
    Se connecter

    Météo par heure à Borken

    Ce jour, 18 Juillet, Jeudi

    Heure Température Précipitation Vent Pression Humidité
    00:00 +15°C° 0 mm 2 m/s 755 mmHg 81%
    01:00 +15°C° 0 mm 2 m/s 755 mmHg 82%
    02:00 +15°C° 0 mm 2 m/s 755 mmHg 83%
    03:00 +15°C° 0 mm 2 m/s 754 mmHg 84%
    04:00 +15°C° 0 mm 2 m/s 754 mmHg 82%
    05:00 +16°C° 0 mm 2 m/s 754 mmHg 80%
    06:00 +17°C° 0 mm 2 m/s 754 mmHg 78%
    07:00 +19°C° 0 mm 2 m/s 754 mmHg 71%
    08:00 +21°C° 0 mm 3 m/s 754 mmHg 64%
    09:00 +24°C° 0 mm 3 m/s 754 mmHg 56%
    10:00 +25°C° 0.1 mm 4 m/s 754 mmHg 54%
    11:00 +25°C° 0.1 mm 4 m/s 754 mmHg 52%
    12:00 +26°C° 0.1 mm 5 m/s 754 mmHg 50%
    13:00 +26°C° 0 mm 5 m/s 754 mmHg 51%
    14:00 +25°C° 0 mm 5 m/s 754 mmHg 51%
    15:00 +25°C° 0 mm 5 m/s 754 mmHg 52%
    16:00 +23°C° 0 mm 4 m/s 754 mmHg 59%
    17:00 +21°C° 0 mm 3 m/s 754 mmHg 67%
    18:00 +20°C° 0 mm 2 m/s 754 mmHg 75%
    19:00 +19°C° 0 mm 2 m/s 754 mmHg 78%
    20:00 +18°C° 0 mm 2 m/s 755 mmHg 82%
    21:00 +17°C° 0 mm 2 m/s 755 mmHg 85%
    22:00 +17°C° 0 mm 2 m/s 755 mmHg 85%
    23:00 +17°C° 0 mm 2 m/s 755 mmHg 86%

    Demain, 19 Juillet, Vendredi

    Heure Température Précipitation Vent Pression Humidité
    00:00 +16°C° 0 mm 2 m/s 755 mmHg 86%
    01:00 +16°C° 0 mm 2 m/s 755 mmHg 87%
    02:00 +16°C° 0 mm 2 m/s 755 mmHg 89%
    03:00 +16°C° 0 mm 2 m/s 755 mmHg 90%
    04:00 +16°C° 0 mm 3 m/s 755 mmHg 88%
    05:00 +17°C° 0 mm 3 m/s 755 mmHg 85%
    06:00 +18°C° 0 mm 3 m/s 755 mmHg 83%
    07:00 +19°C° 0 mm 3 m/s 756 mmHg 77%
    08:00 +21°C° 0 mm 3 m/s 756 mmHg 72%
    09:00 +22°C° 0 mm 3 m/s 756 mmHg 66%
    10:00 +24°C° 0.1 mm 3 m/s 756 mmHg 62%
    11:00 +25°C° 0.1 mm 4 m/s 756 mmHg 57%
    12:00 +26°C° 0.1 mm 4 m/s 756 mmHg 53%
    13:00 +26°C° 0 mm 4 m/s 755 mmHg 51%
    14:00 +26°C° 0 mm 4 m/s 755 mmHg 49%
    15:00 +27°C° 0 mm 3 m/s 755 mmHg 46%
    16:00 +26°C° 0 mm 3 m/s 756 mmHg 52%
    17:00 +25°C° 0 mm 2 m/s 756 mmHg 58%
    18:00 +24°C° 0 mm 2 m/s 756 mmHg 64%
    19:00 +23°C° 0 mm 2 m/s 756 mmHg 71%
    20:00 +20°C° 0 mm 2 m/s 756 mmHg 78%
    21:00 +19°C° 0 mm 1 m/s 756 mmHg 85%
    22:00 +19°C° 0 mm 1 m/s 756 mmHg 86%
    23:00 +19°C° 0 mm 1 m/s 756 mmHg 86%

    Après-demain, 20 Juillet, Samedi

    Heure Température Précipitation Vent Pression Humidité
    00:00 +18°C° 0 mm 1 m/s 756 mmHg 87%
    01:00 +18°C° 0 mm 1 m/s 755 mmHg 85%
    02:00 +17°C° 0 mm 2 m/s 755 mmHg 82%
    03:00 +17°C° 0 mm 2 m/s 755 mmHg 79%
    04:00 +18°C° 0 mm 3 m/s 755 mmHg 77%
    05:00 +19°C° 0 mm 3 m/s 754 mmHg 75%
    06:00 +20°C° 0 mm 4 m/s 754 mmHg 72%
    07:00 +21°C° 0.1 mm 4 m/s 754 mmHg 71%
    08:00 +21°C° 0.1 mm 4 m/s 754 mmHg 70%
    09:00 +22°C° 0.1 mm 4 m/s 754 mmHg 69%
    10:00 +25°C° 0.8 mm 5 m/s 754 mmHg 66%
    11:00 +26°C° 0.8 mm 5 m/s 754 mmHg 64%
    12:00 +27°C° 0.8 mm 5 m/s 754 mmHg 61%
    13:00 +27°C° 1.5 mm 5 m/s 754 mmHg 64%
    14:00 +26°C° 1.5 mm 5 m/s 754 mmHg 66%
    15:00 +26°C° 1.5 mm 5 m/s 754 mmHg 69%
    16:00 +23°C° 2 mm 4 m/s 754 mmHg 74%
    17:00 +22°C° 2 mm 4 m/s 754 mmHg 80%
    18:00 +21°C° 2 mm 3 m/s 754 mmHg 85%
    19:00 +20°C° 0.2 mm 3 m/s 754 mmHg 87%
    20:00 +19°C° 0.2 mm 3 m/s 755 mmHg 89%
    21:00 +18°C° 0.2 mm 3 m/s 755 mmHg 91%
    22:00 +18°C° 0 mm 3 m/s 756 mmHg 90%
    23:00 +17°C° 0 mm 3 m/s 756 mmHg 90%

    21 Juillet, Dimanche

    Heure Température Précipitation Vent Pression Humidité
    00:00 +16°C° 0 mm 3 m/s 756 mmHg 89%
    01:00 +16°C° 0 mm 3 m/s 756 mmHg 90%
    02:00 +15°C° 0 mm 4 m/s 757 mmHg 90%
    03:00 +15°C° 0 mm 4 m/s 757 mmHg 91%
    04:00 +15°C° 0 mm 4 m/s 757 mmHg 90%
    05:00 +17°C° 0 mm 4 m/s 758 mmHg 89%
    06:00 +16°C° 0 mm 5 m/s 758 mmHg 88%
    07:00 +17°C° 0 mm 5 m/s 759 mmHg 85%
    08:00 +19°C° 0 mm 5 m/s 759 mmHg 81%
    09:00 +20°C° 0 mm 5 m/s 760 mmHg 78%
    10:00 +21°C° 0 mm 5 m/s 760 mmHg 75%
    11:00 +21°C° 0 mm 5 m/s 760 mmHg 73%
    12:00 +22°C° 0 mm 5 m/s 760 mmHg 70%
    13:00 +23°C° 0 mm 5 m/s 760 mmHg 68%
    14:00 +23°C° 0 mm 5 m/s 760 mmHg 65%
    15:00 +25°C° 0 mm 5 m/s 760 mmHg 63%
    16:00 +23°C° 0 mm 4 m/s 761 mmHg 66%
    17:00 +24°C° 0 mm 3 m/s 761 mmHg 70%
    18:00 +22°C° 0 mm 3 m/s 761 mmHg 73%
    19:00 +21°C° 0 mm 2 m/s 761 mmHg 79%
    20:00 +19°C° 0 mm 2 m/s 762 mmHg 85%
    21:00 +19°C° 0 mm 1 m/s 762 mmHg 91%
    22:00 +19°C° 0 mm 1 m/s 762 mmHg 92%
    23:00 +18°C° 0 mm 1 m/s 762 mmHg 93%

    22 Juillet, Lundi

    Heure Température Précipitation Vent Pression Humidité
    00:00 +18°C° 0 mm 1 m/s 762 mmHg 94%
    01:00 +18°C° 0 mm 1 m/s 762 mmHg 94%
    02:00 +16°C° 0 mm 1 m/s 762 mmHg 94%
    03:00 +16°C° 0 mm 1 m/s 762 mmHg 95%
    04:00 +18°C° 0 mm 1 m/s 762 mmHg 92%
    05:00 +19°C° 0 mm 1 m/s 762 mmHg 89%
    06:00 +20°C° 0 mm 1 m/s 763 mmHg 87%
    07:00 +21°C° 0 mm 1 m/s 763 mmHg 80%
    08:00 +23°C° 0 mm 1 m/s 763 mmHg 73%
    09:00 +25°C° 0 mm 1 m/s 763 mmHg 66%
    10:00 +26°C° 0 mm 1 m/s 763 mmHg 61%
    11:00 +27°C° 0 mm 1 m/s 762 mmHg 57%
    12:00 +28°C° 0 mm 1 m/s 762 mmHg 53%
    13:00 +28°C° 0 mm 2 m/s 762 mmHg 52%
    14:00 +28°C° 0 mm 2 m/s 762 mmHg 50%
    15:00 +28°C° 0 mm 3 m/s 762 mmHg 49%
    16:00 +27°C° 0 mm 3 m/s 762 mmHg 54%
    17:00 +27°C° 0 mm 3 m/s 762 mmHg 58%
    18:00 +26°C° 0 mm 3 m/s 762 mmHg 63%
    19:00 +24°C° 0 mm 3 m/s 762 mmHg 65%
    20:00 +22°C° 0 mm 3 m/s 762 mmHg 68%
    21:00 +20°C° 0 mm 3 m/s 762 mmHg 70%
    22:00 +19°C° 0 mm 3 m/s 762 mmHg 72%
    23:00 +19°C° 0 mm 3 m/s 762 mmHg 75%

    23 Juillet, Mardi

    Heure Température Précipitation Vent Pression Humidité
    00:00 +18°C° 0 mm 3 m/s 762 mmHg 77%
    01:00 +18°C° 0 mm 3 m/s 762 mmHg 78%
    02:00 +18°C° 0 mm 3 m/s 762 mmHg 79%
    03:00 +17°C° 0 mm 3 m/s 762 mmHg 80%
    04:00 +18°C° 0 mm 3 m/s 762 mmHg 78%
    05:00 +19°C° 0 mm 3 m/s 762 mmHg 77%
    06:00 +19°C° 0 mm 4 m/s 762 mmHg 75%
    07:00 +21°C° 0 mm 4 m/s 761 mmHg 69%
    08:00 +25°C° 0 mm 3 m/s 761 mmHg 63%
    09:00 +27°C° 0 mm 3 m/s 761 mmHg 57%
    10:00 +28°C° 0 mm 3 m/s 761 mmHg 53%
    11:00 +29°C° 0 mm 3 m/s 761 mmHg 48%
    12:00 +30°C° 0 mm 3 m/s 761 mmHg 43%
    13:00 +31°C° 0 mm 3 m/s 760 mmHg 42%
    14:00 +31°C° 0 mm 3 m/s 760 mmHg 41%
    15:00 +32°C° 0 mm 4 m/s 760 mmHg 40%
    16:00 +30°C° 0 mm 4 m/s 760 mmHg 45%
    17:00 +29°C° 0 mm 4 m/s 760 mmHg 51%
    18:00 +27°C° 0 mm 4 m/s 760 mmHg 56%
    19:00 +26°C° 0 mm 4 m/s 760 mmHg 57%
    20:00 +25°C° 0 mm 4 m/s 760 mmHg 59%
    21:00 +23°C° 0 mm 5 m/s 760 mmHg 60%
    22:00 +22°C° 0 mm 4 m/s 760 mmHg 62%
    23:00 +21°C° 0 mm 4 m/s 760 mmHg 65%
    Voir plus